This is the latest recevied weather packets stored in our database for station/object EA2KR-10. If no packets are shown the sender has not sent any weather packets the latest 10 day(s).
| Time | Temp. | Humidity | Pressure | Rain* | Wind** | Luminosity | Snow |
|---|---|---|---|---|---|---|---|
| 1788055404 | 23.89° C | 37% | 1030.4 hPa | - | - | - | - |
| 1788053604 | 24.44° C | 36% | 1030.4 hPa | - | - | - | - |
| 1788051803 | 24.44° C | 35% | 1030.7 hPa | - | - | - | - |
| 1788050003 | 25° C | 35% | 1030.9 hPa | - | - | - | - |
| 1788048203 | 25.56° C | 33% | 1030.9 hPa | - | - | - | - |
| 1788046403 | 26.11° C | 33% | 1030.9 hPa | - | - | - | - |
| 1788044603 | 26.67° C | 32% | 1031 hPa | - | - | - | - |
| 1788042803 | 27.22° C | 30% | 1031 hPa | - | - | - | - |
| 1788041003 | 28.33° C | 28% | 1031.1 hPa | - | - | - | - |
| 1788039203 | 29.44° C | 27% | 1031.1 hPa | - | - | - | - |
| 1788037403 | 30.56° C | 24% | 1031.1 hPa | - | - | - | - |
| 1788035603 | 32.22° C | 23% | 1031 hPa | - | - | - | - |
| 1788033802 | 33.89° C | 20% | 1030.5 hPa | - | - | - | - |
| 1788032002 | 36.11° C | 19% | 1030.2 hPa | - | - | - | - |
| 1788030202 | 38.89° C | 18% | 1029.9 hPa | - | - | - | - |
| 1788028405 | 41.11° C | 17% | 1029.7 hPa | - | - | - | - |
| 1788026605 | 43.33° C | 16% | 1029.6 hPa | - | - | - | - |
| 1788024805 | 43.89° C | 15% | 1029.6 hPa | - | - | - | - |
| 1788023005 | 44.44° C | 15% | 1029.5 hPa | - | - | - | - |
| 1788021205 | 44.44° C | 15% | 1029.6 hPa | - | - | - | - |
| 1788019405 | 44.44° C | 16% | 1029.8 hPa | - | - | - | - |
| 1788017604 | 43.89° C | 17% | 1030 hPa | - | - | - | - |
| 1788015804 | 43.33° C | 17% | 1030.3 hPa | - | - | - | - |
| 1788014004 | 42.22° C | 18% | 1030.4 hPa | - | - | - | - |
| 1788012204 | 41.67° C | 19% | 1030.8 hPa | - | - | - | - |
* Rain since midnight (hover to see other rain measurements)
** Current wind speed in m/s (hover to see current wind gust speed)